Temp
67 68 67 68 61 55 52 56 60 64 67 71 72 70 72 72 71 63 77 80 79 76 78 79 80 80 80 80 79 79 79 79 79 79 79 79 79 79 79 79 79 80 81 81 81 81 81 80 81
67 72 69 61 53 49 51 57 58 64 70 73 73 73 72 69 78 78 77 80 80 77 76 77 80 80 80 79 79 78 79 79 79 79 79 79 79 79 79 79 79 80 81 81 81 81 81 80 80
70 70 64 53 46 46 48 58 61 65 69 68 69 76 73 72 80 78 79 79 78 76 76 77 79 79 80 79 79 78 78 78 79 79 79 79 79 79 79 79 79 80 81 81 81 80 80 80 80
67 66 60 53 46 49 53 61 63 64 69 71 72 71 76 79 78 80 80 80 77 75 76 78 79 79 79 79 79 78 78 78 78 79 79 79 79 78 78 78 79 80 81 81 80 80 79 79 79
63 59 51 47 48 52 59 62 62 63 64 68 70 68 71 78 80 79 79 79 76 74 76 77 79 79 79 79 79 78 78 78 78 78 79 79 78 78 78 78 79 79 80 80 80 79 78 78 78
59 56 49 46 47 56 59 59 61 63 64 69 68 68 67 76 77 77 79 77 78 75 76 76 79 79 79 79 79 78 78 78 78 78 78 78 78 78 78 78 78 79 79 79 79 78 78 77 77
55 53 47 47 48 52 60 63 60 61 63 68 67 64 66 74 74 76 76 76 76 76 75 75 76 78 79 78 78 78 77 77 77 77 77 77 78 77 78 78 78 78 78 78 78 77 77 77 77
55 52 43 44 49 48 62 63 61 61 63 73 73 64 63 70 74 76 75 74 74 74 75 75 77 76 76 76 78 78 77 77 77 77 77 77 77 77 77 77 77 78 78 77 77 77 77 77 77
57 48 43 45 49 52 57 58 65 67 64 68 70 68 74 74 75 74 72 73 72 74 73 74 76 77 78 75 77 77 78 78 77 77 77 76 75 75 76 76 77 77 77 77 77 77 76 77 77
53 45 45 53 54 51 55 55 61 64 63 64 66 72 75 75 71 72 71 69 71 72 73 72 75 77 77 78 75 75 75 75 75 75 75 74 75 74 75 76 77 77 77 77 77 76 76 77 73
50 49 52 56 57 56 54 56 62 59 59 63 65 69 69 72 70 68 71 71 70 72 72 74 73 76 76 75 74 77 76 75 76 75 74 76 76 75 74 73 74 74 75 75 75 74 73 72 72
50 56 56 58 58 57 56 59 57 59 63 68 69 68 67 68 66 68 69 69 70 70 73 73 73 72 74 73 74 75 76 77 75 76 76 75 74 72 73 73 72 72 74 72 72 72 71 71 72
50 54 57 61 57 53 60 60 57 61 67 67 67 68 67 67 68 67 68 68 70 69 71 72 72 72 72 72 75 75 76 76 75 75 74 76 73 71 72 71 70 70 72 71 71 71 71 71 71
54 54 57 55 56 55 55 57 56 63 64 66 65 64 65 66 67 66 66 66 65 67 68 72 71 72 71 72 74 75 75 75 73 73 74 75 74 72 70 69 70 70 70 71 71 71 71 70 72
55 52 54 55 56 57 56 52 55 63 63 62 63 63 64 65 67 67 67 66 66 66 66 67 72 72 70 71 71 71 72 72 72 73 74 73 73 72 70 69 69 70 70 70 70 70 70 70 72
49 48 43 54 55 56 58 45 57 62 58 60 63 65 65 64 64 65 68 65 66 63 64 65 72 72 70 70 71 72 71 72 72 72 72 73 73 71 69 69 70 71 70 71 70 70 70 70 71
44 39 40 48 54 53 52 48 58 63 58 58 60 61 64 63 65 65 65 66 66 65 63 63 65 71 71 71 71 69 69 69 69 70 70 71 72 72 70 70 69 70 71 70 71 70 70 70 71
39 39 41 43 50 48 46 48 54 60 56 56 56 57 58 59 61 64 65 66 66 65 63 61 63 69 71 70 68 69 68 69 69 69 69 70 71 72 69 69 69 70 70 70 69 70 70 71 72
46 43 43 46 52 46 48 47 51 57 54 53 55 55 56 57 62 63 65 65 65 62 61 60 61 62 68 67 67 67 69 68 68 70 71 71 71 71 70 68 68 68 69 71 71 70 69 69 70
47 43 43 47 51 48 48 50 52 53 52 52 54 53 55 57 59 63 64 65 62 61 59 59 59 61 67 68 67 68 67 67 68 68 69 70 70 70 70 69 69 69 68 69 69 69 68 69 69
44 43 42 44 48 49 46 43 45 52 53 55 54 54 55 55 56 60 63 62 62 61 58 60 59 60 64 66 66 66 67 67 66 66 66 68 69 70 71 71 70 69 68 67 68 68 68 67 66
40 50 49 47 41 36 45 33 39 45 48 50 51 51 52 55 58 61 62 62 62 62 59 59 59 60 62 65 66 65 64 63 63 65 66 67 68 69 70 70 70 69 68 68 67 68 68 66 63
47 52 49 47 38 33 36 30 37 43 43 46 50 52 52 54 56 58 61 62 64 63 61 58 60 61 62 65 66 64 61 60 63 65 66 67 68 68 69 69 69 68 68 69 68 68 67 66 63
54 47 41 35 33 27 34 33 32 39 44 46 50 52 54 54 56 58 61 62 63 64 63 63 61 59 61 62 63 62 60 62 62 63 64 65 65 67 69 70 69 68 68 67 68 68 68 64 63
48 37 25 26 26 26 36 33 36 45 47 49 49 51 54 55 55 55 57 59 61 61 61 63 59 59 61 63 63 62 62 62 62 63 64 64 63 65 67 69 69 69 68 67 65 64 63 62 60
39 38 28 25 23 31 41 29 37 48 51 52 53 52 54 56 56 57 56 59 60 60 59 59 59 60 60 59 61 64 64 62 61 63 64 63 63 64 67 68 68 67 64 61 60 59 58 57 56
40 35 39 32 28 23 29 37 45 47 48 50 52 53 52 52 53 54 57 61 60 59 57 56 57 58 59 59 59 60 61 63 64 64 65 64 65 65 66 67 67 63 61 60 59 57 56 55 55
44 46 30 27 20 21 27 30 31 40 45 50 48 48 50 53 52 52 55 58 59 57 56 56 56 57 57 59 59 60 61 61 63 64 64 64 64 65 66 66 62 59 59 57 56 54 54 53 52
40 35 36 36 30 22 22 29 39 42 45 44 46 47 48 49 50 52 54 56 55 57 57 57 56 57 57 58 59 59 60 61 62 62 63 64 63 63 60 59 59 58 56 56 54 53 53 52 51
43 38 35 25 24 27 24 31 48 45 44 45 45 46 49 50 51 52 54 57 55 54 56 57 56 56 57 58 58 60 62 62 61 63 63 61 59 59 59 58 57 57 55 55 54 53 53 51 50
MSLP
1009.53 1009.30 1009.37 1009.73 1011.05 1011.31 1011.20 1011.14 1010.09 1008.84 1007.75 1006.83 1006.78 1006.57 1006.07 1006.25 1006.33 1006.82 1006.10 1006.12 1006.48 1006.74 1007.01 1007.57 1007.86 1008.08 1008.37 1008.40 1008.48 1008.59 1008.79 1008.99 1009.19 1009.43 1009.76 1010.00 1010.24 1010.51 1010.76 1011.08 1011.41 1011.65 1011.83 1011.99 1012.14 1012.30 1012.46 1012.59 1012.76
1009.42 1009.22 1009.50 1010.35 1011.55 1012.22 1011.96 1011.13 1010.50 1009.29 1007.91 1006.85 1006.51 1006.28 1006.45 1006.48 1006.15 1006.10 1006.05 1006.25 1006.53 1007.02 1007.41 1007.80 1008.11 1008.31 1008.51 1008.71 1008.85 1008.95 1009.17 1009.38 1009.62 1009.75 1009.97 1010.28 1010.47 1010.75 1010.91 1011.17 1011.49 1011.74 1011.93 1012.11 1012.29 1012.45 1012.57 1012.68 1012.85
1009.39 1009.47 1010.34 1011.71 1012.60 1012.81 1012.15 1011.27 1010.49 1009.31 1008.01 1007.32 1006.64 1006.22 1006.52 1006.82 1006.36 1006.33 1006.22 1006.64 1006.91 1007.29 1007.59 1008.00 1008.35 1008.49 1008.60 1008.82 1009.09 1009.18 1009.36 1009.68 1009.92 1010.14 1010.36 1010.56 1010.74 1010.98 1011.13 1011.34 1011.63 1011.86 1012.00 1012.14 1012.28 1012.51 1012.70 1012.79 1012.89
1009.80 1010.33 1011.83 1012.01 1012.88 1012.51 1012.03 1011.36 1010.55 1009.71 1008.20 1007.57 1007.08 1007.08 1007.07 1007.29 1007.21 1006.69 1006.71 1006.86 1007.26 1007.70 1007.82 1008.19 1008.48 1008.61 1008.67 1008.85 1009.09 1009.35 1009.51 1009.87 1010.18 1010.32 1010.55 1010.79 1011.07 1011.28 1011.41 1011.53 1011.66 1011.87 1012.02 1012.17 1012.33 1012.52 1012.76 1012.86 1012.96
1010.59 1011.67 1012.75 1012.92 1012.89 1012.43 1011.80 1011.36 1010.69 1010.25 1009.47 1008.60 1007.75 1008.04 1007.83 1007.69 1007.24 1007.20 1007.11 1007.32 1007.67 1008.08 1008.14 1008.28 1008.46 1008.68 1008.84 1008.98 1009.21 1009.35 1009.49 1009.87 1010.24 1010.46 1010.72 1010.97 1011.24 1011.42 1011.55 1011.65 1011.78 1011.92 1012.05 1012.19 1012.41 1012.54 1012.71 1012.90 1012.98
1011.79 1012.70 1013.56 1013.56 1013.02 1012.41 1011.78 1011.35 1010.86 1010.35 1009.75 1009.04 1008.62 1008.58 1008.73 1008.29 1007.71 1007.80 1007.76 1007.51 1007.69 1008.04 1008.26 1008.51 1008.68 1008.87 1008.98 1009.08 1009.35 1009.45 1009.65 1009.89 1010.17 1010.45 1010.74 1011.03 1011.27 1011.47 1011.67 1011.78 1011.89 1012.01 1012.14 1012.24 1012.37 1012.53 1012.62 1012.88 1012.94
1012.23 1013.29 1013.92 1013.46 1013.04 1012.40 1011.78 1011.15 1011.03 1010.68 1009.99 1009.39 1009.37 1009.05 1009.02 1008.46 1008.19 1008.17 1008.17 1008.39 1008.43 1008.51 1008.64 1008.71 1008.89 1009.13 1009.33 1009.39 1009.48 1009.53 1009.65 1009.95 1010.21 1010.46 1010.78 1010.99 1011.22 1011.50 1011.68 1011.85 1011.96 1012.08 1012.20 1012.32 1012.40 1012.57 1012.72 1012.85 1012.97
1012.28 1013.51 1014.03 1013.50 1013.11 1012.56 1011.94 1011.47 1010.98 1010.81 1010.21 1009.52 1009.13 1009.48 1009.36 1009.10 1008.61 1008.38 1008.40 1008.61 1008.67 1008.62 1008.74 1008.93 1008.98 1009.13 1009.29 1009.52 1009.59 1009.64 1009.71 1009.83 1010.10 1010.40 1010.70 1010.95 1011.21 1011.44 1011.69 1011.89 1012.01 1012.16 1012.29 1012.40 1012.49 1012.62 1012.68 1012.79 1012.96
1012.34 1013.66 1014.14 1013.38 1012.96 1012.68 1012.07 1011.70 1010.89 1010.62 1010.49 1010.11 1009.65 1009.42 1009.05 1008.98 1008.77 1008.57 1008.81 1008.90 1009.00 1008.91 1008.78 1008.76 1008.99 1008.97 1009.20 1009.43 1009.60 1009.70 1009.83 1010.13 1010.26 1010.35 1010.51 1010.82 1011.13 1011.38 1011.64 1011.85 1012.04 1012.18 1012.31 1012.43 1012.49 1012.59 1012.62 1012.63 1012.77
1013.10 1013.99 1013.76 1013.24 1012.76 1012.63 1012.31 1011.98 1011.39 1011.01 1010.65 1010.23 1009.91 1009.44 1008.93 1008.98 1009.13 1009.09 1008.99 1009.03 1009.11 1008.98 1008.74 1008.80 1008.91 1008.95 1008.99 1009.18 1009.33 1009.62 1009.84 1009.83 1010.16 1010.43 1010.53 1010.77 1011.05 1011.34 1011.45 1011.69 1011.89 1012.10 1012.22 1012.35 1012.39 1012.38 1012.38 1012.40 1012.64
1013.34 1013.70 1013.48 1013.02 1012.63 1012.34 1012.29 1012.11 1011.61 1011.27 1011.01 1010.72 1010.33 1009.74 1009.62 1009.15 1009.09 1009.40 1009.14 1009.03 1008.81 1008.79 1008.96 1008.71 1008.73 1008.93 1009.03 1009.14 1009.14 1009.25 1009.57 1009.79 1010.02 1010.11 1010.39 1010.70 1010.92 1011.16 1011.28 1011.52 1011.76 1011.95 1012.06 1012.15 1012.22 1012.24 1012.21 1012.24 1012.33
1013.23 1013.26 1013.17 1012.78 1012.46 1012.46 1012.25 1012.06 1012.00 1011.76 1011.35 1011.01 1010.52 1010.19 1009.96 1009.68 1009.60 1009.30 1009.16 1008.97 1008.80 1008.68 1008.11 1008.14 1008.57 1008.92 1008.86 1008.89 1009.06 1008.95 1009.37 1009.41 1009.53 1009.82 1010.02 1010.32 1010.67 1010.94 1010.99 1011.18 1011.43 1011.69 1011.82 1011.92 1012.00 1012.07 1012.00 1011.95 1011.98
1013.52 1013.45 1013.24 1012.81 1012.63 1012.49 1011.96 1011.91 1011.84 1011.29 1010.88 1010.63 1010.57 1010.42 1010.26 1010.02 1009.51 1008.99 1008.90 1008.72 1008.45 1008.36 1007.86 1007.84 1007.88 1008.34 1008.56 1008.77 1008.91 1009.03 1009.14 1009.30 1009.23 1009.32 1009.65 1009.92 1010.34 1010.67 1010.77 1010.87 1011.04 1011.29 1011.45 1011.56 1011.70 1011.77 1011.84 1011.80 1011.70
1013.85 1013.63 1013.30 1012.95 1012.71 1012.51 1012.56 1012.32 1012.20 1011.74 1011.29 1011.05 1010.86 1010.60 1010.16 1009.88 1009.48 1009.15 1008.92 1008.50 1008.51 1007.95 1007.55 1007.10 1007.50 1007.44 1008.00 1008.32 1008.58 1008.67 1008.93 1008.82 1009.03 1009.10 1009.21 1009.61 1009.90 1010.24 1010.44 1010.56 1010.72 1010.91 1010.99 1011.06 1011.19 1011.35 1011.44 1011.47 1011.42
1013.95 1013.94 1013.44 1013.16 1013.00 1012.88 1012.44 1012.64 1012.32 1011.40 1011.31 1011.08 1010.73 1010.44 1010.16 1009.93 1009.31 1009.00 1008.54 1008.21 1007.73 1007.38 1007.25 1007.16 1006.83 1007.02 1007.45 1007.54 1008.04 1008.31 1008.32 1008.44 1008.71 1008.60 1008.94 1009.01 1009.44 1009.78 1010.25 1010.36 1010.47 1010.44 1010.52 1010.71 1010.87 1011.01 1011.13 1011.18 1011.05
1014.90 1014.80 1014.80 1013.66 1013.45 1013.06 1012.70 1012.36 1012.41 1011.47 1011.58 1011.22 1010.74 1010.30 1009.97 1009.66 1009.35 1008.70 1008.02 1007.63 1006.97 1007.06 1006.84 1006.40 1006.31 1006.45 1006.76 1007.17 1007.32 1007.64 1007.72 1007.80 1008.27 1008.30 1008.39 1008.59 1008.78 1009.16 1009.76 1010.10 1010.06 1009.96 1010.24 1010.40 1010.64 1010.72 1010.82 1010.80 1010.80
1016.22 1016.33 1015.86 1014.83 1013.64 1013.57 1013.50 1013.29 1012.20 1011.51 1011.70 1011.39 1010.74 1010.34 1009.91 1009.39 1008.87 1008.50 1007.97 1007.36 1006.89 1006.55 1006.34 1006.32 1006.34 1005.99 1006.03 1006.38 1006.79 1007.19 1007.55 1007.80 1007.79 1007.99 1008.19 1008.19 1008.25 1008.58 1009.08 1009.28 1009.58 1009.62 1009.89 1010.11 1010.33 1010.40 1010.48 1010.37 1010.28
1017.15 1017.00 1016.36 1015.86 1014.49 1014.23 1014.23 1014.20 1013.41 1012.18 1012.40 1012.17 1012.07 1011.61 1011.07 1010.37 1009.33 1008.46 1007.77 1007.13 1006.54 1005.98 1005.71 1005.84 1005.63 1005.94 1005.55 1006.01 1006.50 1007.01 1007.41 1007.48 1007.54 1007.40 1007.57 1007.71 1007.82 1007.98 1008.42 1008.64 1008.97 1009.26 1009.46 1009.68 1009.86 1009.93 1010.03 1010.08 1009.97
1016.59 1016.72 1016.50 1015.62 1014.72 1014.72 1014.42 1014.42 1013.97 1012.53 1012.58 1012.63 1012.50 1012.10 1011.68 1011.02 1009.85 1008.86 1007.89 1007.04 1006.37 1005.54 1005.18 1004.89 1005.10 1004.88 1005.87 1006.03 1006.31 1006.67 1006.89 1006.84 1007.18 1007.01 1007.05 1007.21 1007.20 1007.37 1007.85 1008.11 1008.49 1008.70 1009.01 1009.02 1009.25 1009.56 1009.66 1009.77 1009.88
1016.11 1016.27 1016.06 1015.41 1014.89 1014.93 1014.41 1013.95 1013.32 1012.78 1012.80 1012.91 1012.90 1012.61 1012.23 1011.45 1010.35 1009.03 1008.04 1007.22 1006.60 1005.94 1005.03 1004.37 1004.47 1004.80 1004.93 1005.26 1005.44 1005.65 1006.08 1006.41 1006.60 1006.79 1006.92 1006.96 1007.22 1007.33 1007.55 1007.43 1007.48 1007.74 1008.03 1008.47 1008.65 1008.98 1009.21 1009.33 1009.63
1015.48 1015.82 1015.97 1015.93 1015.27 1015.07 1014.74 1013.83 1013.40 1012.75 1012.85 1013.02 1013.10 1013.04 1012.64 1012.07 1011.06 1009.79 1008.60 1007.73 1006.73 1005.76 1005.04 1004.06 1003.89 1004.03 1004.17 1004.91 1005.21 1005.60 1006.10 1006.43 1006.68 1006.83 1006.90 1006.75 1006.93 1007.08 1007.10 1006.97 1006.94 1007.07 1006.89 1007.48 1007.88 1008.09 1008.33 1008.98 1009.35
1015.24 1015.39 1015.88 1016.18 1016.40 1016.15 1015.59 1014.73 1014.21 1013.53 1013.32 1013.46 1013.32 1013.13 1012.76 1012.11 1011.12 1010.15 1008.92 1007.62 1006.90 1006.21 1005.03 1003.81 1003.73 1003.94 1004.36 1004.88 1005.28 1005.25 1005.68 1006.24 1006.56 1006.60 1006.38 1006.52 1006.45 1006.49 1006.50 1006.50 1006.52 1006.44 1006.76 1006.97 1006.97 1007.12 1007.95 1008.64 1009.24
1015.20 1015.48 1015.92 1016.14 1016.81 1017.08 1016.62 1016.70 1014.64 1014.15 1013.82 1013.74 1013.61 1013.27 1012.75 1012.20 1011.53 1010.61 1009.63 1008.55 1007.36 1006.60 1004.83 1004.21 1003.70 1004.12 1004.23 1004.35 1005.17 1005.83 1005.90 1006.33 1006.54 1006.35 1006.42 1006.10 1005.93 1005.86 1005.92 1006.01 1006.08 1006.21 1006.36 1006.30 1006.50 1006.68 1006.41 1007.72 1008.26
1015.27 1015.89 1016.40 1017.45 1018.03 1018.14 1017.30 1017.18 1015.57 1014.57 1013.94 1013.79 1013.52 1013.21 1012.61 1011.90 1011.27 1010.72 1010.01 1009.02 1007.82 1007.24 1005.93 1005.16 1005.08 1004.30 1003.94 1004.65 1005.11 1005.67 1005.85 1006.09 1006.15 1006.19 1006.08 1005.68 1005.50 1005.24 1005.19 1005.26 1005.53 1005.60 1005.78 1005.92 1006.08 1006.09 1006.43 1007.41 1007.86
1015.82 1017.18 1018.13 1018.80 1019.11 1018.91 1017.85 1017.38 1015.08 1013.84 1013.60 1013.52 1013.41 1013.06 1012.33 1011.75 1011.24 1010.80 1010.31 1009.63 1009.03 1008.34 1007.70 1006.87 1006.38 1005.28 1005.29 1004.53 1004.42 1005.45 1005.53 1005.45 1005.65 1005.81 1005.65 1005.41 1005.27 1005.03 1004.77 1004.75 1004.77 1005.03 1005.29 1005.47 1005.72 1006.14 1006.56 1007.06 1007.60
1016.35 1017.67 1019.61 1020.46 1020.16 1019.04 1018.46 1016.90 1014.55 1013.49 1013.18 1013.19 1013.11 1012.93 1012.47 1011.83 1011.34 1011.19 1010.59 1010.24 1010.04 1009.32 1008.76 1007.82 1006.97 1006.18 1005.43 1005.18 1005.60 1005.48 1005.28 1005.24 1005.13 1005.22 1005.22 1004.86 1004.76 1004.66 1004.49 1004.42 1004.32 1004.36 1005.01 1005.47 1005.79 1006.37 1006.87 1007.01 1007.53
1016.71 1017.86 1018.84 1020.11 1020.44 1020.04 1017.88 1016.02 1014.34 1013.57 1013.39 1013.28 1013.03 1012.83 1012.61 1012.11 1011.59 1010.99 1010.52 1009.95 1010.31 1010.06 1009.57 1009.08 1007.79 1007.14 1006.41 1006.08 1005.82 1005.72 1005.52 1005.40 1005.37 1005.17 1004.90 1004.83 1004.58 1004.69 1004.57 1004.35 1004.19 1004.47 1005.05 1005.34 1006.03 1006.57 1007.14 1007.45 1007.90
1016.29 1017.42 1019.11 1020.68 1021.23 1020.30 1018.05 1016.45 1014.70 1013.99 1013.65 1013.26 1013.32 1013.21 1012.77 1012.10 1011.63 1011.32 1010.89 1010.18 1010.35 1010.84 1010.21 1009.61 1008.38 1007.98 1007.35 1006.56 1006.14 1005.88 1005.75 1005.50 1005.12 1004.89 1004.78 1004.73 1004.81 1004.78 1004.64 1004.37 1004.51 1004.79 1005.24 1005.61 1006.01 1006.66 1007.24 1007.44 1008.30
1016.89 1017.75 1019.07 1020.06 1020.80 1020.19 1018.71 1015.79 1013.98 1013.64 1013.43 1013.66 1013.67 1013.52 1012.94 1012.48 1012.02 1011.49 1011.07 1010.69 1010.91 1010.96 1010.71 1010.32 1009.22 1008.42 1007.61 1007.09 1006.62 1006.21 1006.00 1005.86 1005.65 1005.47 1005.32 1005.20 1005.16 1005.03 1005.05 1004.95 1004.99 1005.09 1005.47 1006.05 1006.31 1006.92 1006.99 1007.57 1008.46
1016.83 1017.54 1018.53 1019.90 1019.99 1019.36 1018.05 1014.67 1013.24 1013.07 1013.32 1013.53 1013.77 1013.65 1012.97 1012.68 1012.22 1011.87 1011.54 1011.20 1011.23 1011.17 1011.37 1010.89 1009.88 1009.02 1008.39 1007.84 1007.25 1007.02 1006.58 1006.33 1006.18 1005.88 1005.65 1005.56 1005.67 1005.59 1005.54 1005.59 1005.58 1005.67 1005.98 1006.22 1006.64 1006.96 1007.45 1008.06 1009.01
Wind_Speed
7 6 2 4 5 6 3 3 3 10 9 1 3 3 6 3 3 3 2 5 5 7 9 9 12 13 11 12 14 15 14 15 15 15 15 15 16 16 14 14 13 13 13 12 10 9 8 6 5
5 3 4 3 7 4 4 4 7 7 8 9 4 2 3 2 0 3 1 4 7 7 5 6 11 14 13 12 12 13 14 14 14 15 15 15 15 15 15 14 14 13 13 11 10 8 7 6 5
3 3 5 6 4 3 0 5 8 8 11 4 1 4 1 4 5 1 1 7 7 7 5 6 11 12 13 13 12 12 13 13 14 14 13 14 14 14 14 13 12 12 12 12 10 8 7 5 4
4 5 5 6 4 1 1 6 7 11 7 6 5 6 4 2 8 6 6 8 7 5 6 8 9 12 12 13 13 13 13 13 13 13 13 13 12 12 11 11 11 11 11 11 9 8 6 5 3
5 4 5 4 2 1 4 4 6 7 6 8 7 4 4 8 8 6 5 6 6 4 4 6 10 10 11 13 13 13 13 13 13 13 13 12 11 11 10 10 10 10 10 10 8 6 5 4 4
5 4 5 2 1 4 5 3 4 7 4 9 10 3 2 6 11 6 2 6 6 6 4 4 8 9 10 11 12 12 12 13 13 12 12 12 11 10 10 9 9 9 8 8 7 6 6 4 4
7 5 4 3 0 2 4 8 4 5 6 8 4 3 3 11 11 5 6 5 4 4 4 3 3 6 9 9 11 12 12 12 12 11 12 11 11 10 9 9 8 8 7 7 6 6 5 4 5
6 6 2 1 1 0 5 7 4 3 3 7 3 3 5 4 8 6 7 5 4 2 3 3 4 4 4 5 10 10 12 12 12 12 11 11 11 10 9 8 8 8 7 6 5 6 6 5 5
3 6 2 1 2 4 4 5 4 3 2 5 2 3 5 3 5 5 3 4 3 2 4 4 7 7 8 5 6 10 12 11 11 11 12 9 4 5 7 6 8 7 7 6 6 7 7 6 5
6 5 2 2 3 2 3 2 4 5 7 3 4 5 7 7 2 5 3 4 4 5 5 5 7 9 7 6 5 4 5 5 5 5 5 4 6 5 6 7 9 9 8 7 7 7 8 8 2
2 4 2 1 2 1 2 1 3 3 7 6 9 10 5 6 6 4 5 4 6 5 3 7 7 9 10 6 4 5 4 4 5 8 5 6 6 6 5 2 2 2 6 3 4 4 3 4 3
4 2 2 5 2 4 5 3 3 4 7 7 11 8 6 8 9 8 7 7 6 6 8 8 7 7 10 4 5 5 6 7 5 8 9 8 6 6 7 6 5 4 4 5 4 3 4 6 5
4 2 4 7 7 4 3 6 4 8 10 8 7 9 10 10 12 8 9 7 9 8 10 9 8 9 8 7 6 5 8 8 8 8 7 8 6 7 6 6 4 4 5 4 4 4 5 6 6
3 4 7 3 5 3 1 2 3 7 6 8 7 10 11 10 11 8 7 10 8 10 10 9 9 12 8 9 10 8 7 8 7 6 7 8 8 7 6 4 5 5 5 5 5 5 5 5 5
3 6 5 4 7 5 3 3 5 10 8 11 11 10 8 9 11 11 10 10 10 9 10 9 10 8 10 12 8 7 7 6 6 6 6 8 8 6 6 4 4 6 5 6 5 5 4 5 5
6 6 6 8 6 2 8 9 8 11 9 15 15 13 11 11 9 11 13 9 10 8 10 10 6 10 11 9 9 7 7 7 6 5 6 9 9 8 6 5 6 5 4 5 5 4 5 5 4
8 4 5 10 5 4 4 10 11 15 9 16 16 16 16 15 13 11 11 10 10 10 9 10 8 11 13 11 8 5 3 4 5 5 5 8 10 10 8 7 5 5 5 5 5 4 4 4 4
5 4 5 6 6 1 4 9 10 15 7 11 10 10 12 13 14 14 14 12 10 10 9 9 6 8 10 4 5 4 3 5 5 6 6 7 7 10 8 6 7 5 5 5 5 7 4 4 3
4 4 7 6 8 3 8 7 12 16 8 8 8 8 10 12 11 11 11 13 13 12 9 10 8 11 5 3 4 3 6 5 3 5 7 8 7 9 9 6 7 6 6 8 7 4 5 4 3
5 5 7 6 4 2 9 14 13 9 5 2 6 9 11 13 16 17 16 14 12 14 11 9 10 7 8 5 2 3 3 2 2 3 5 4 2 5 7 9 8 10 8 8 6 6 3 3 5
4 4 4 6 4 5 6 7 1 3 3 6 5 5 7 9 13 15 18 15 15 17 14 9 9 9 9 7 4 4 4 2 1 1 1 3 5 7 9 9 9 10 8 7 7 6 8 5 2
4 4 5 7 4 6 3 9 5 1 5 5 7 8 9 12 12 14 18 21 20 18 11 7 5 7 2 6 4 7 5 4 1 3 1 3 4 6 8 9 8 7 7 9 8 5 5 3 4
6 4 6 8 5 3 2 1 8 3 3 5 7 8 9 8 9 15 18 18 19 19 16 9 3 2 4 7 6 1 4 3 3 1 3 2 2 4 6 9 10 8 6 7 8 9 11 10 5
4 4 2 4 3 1 3 3 5 3 4 4 4 7 8 8 8 11 15 17 19 20 19 15 8 4 8 7 6 5 6 4 4 3 3 2 3 3 6 7 7 8 9 9 8 8 7 4 2
8 7 6 7 5 5 2 4 10 7 4 5 6 8 10 8 7 7 15 17 18 19 17 14 10 11 5 4 8 7 7 8 7 6 4 4 3 3 5 6 7 7 8 8 7 6 6 7 7
1 6 6 6 4 10 9 8 7 3 4 5 6 8 8 10 8 9 8 13 16 15 16 13 14 13 11 9 6 2 4 3 4 5 4 4 4 4 4 6 7 5 5 5 7 5 5 9 9
3 3 4 3 1 3 5 7 7 0 2 2 7 6 8 8 8 7 8 11 15 14 13 13 9 11 11 8 6 6 5 3 4 6 5 4 4 2 5 8 6 4 6 8 9 7 9 8 8
3 6 1 3 4 5 6 5 6 4 5 6 6 8 9 9 8 7 6 9 14 10 9 11 8 6 7 6 6 5 5 5 4 4 5 4 4 5 7 5 4 7 7 9 10 9 9 12 8
4 1 3 2 5 6 4 7 7 7 8 7 8 9 9 10 8 6 3 5 5 16 9 8 8 7 8 8 7 7 9 9 7 5 5 5 5 4 4 4 4 7 9 9 10 10 12 14 11
4 6 7 6 7 5 4 14 6 7 2 3 6 7 8 7 8 6 6 5 2 6 11 8 7 6 6 7 6 9 8 10 8 7 6 4 4 5 5 5 7 8 7 10 10 13 11 12 12
Wind_Direction
327 314 110 47 56 65 340 44 286 319 331 36 258 261 163 87 156 210 315 141 107 121 139 150 155 152 144 137 136 135 135 134 134 135 135 137 139 142 140 141 147 153 159 160 161 163 166 170 170
324 344 47 73 79 60 303 274 325 257 274 301 228 171 8 73 209 298 37 141 130 121 114 132 155 155 148 142 142 140 140 140 143 144 145 147 146 150 150 152 154 158 162 164 170 178 181 183 184
326 33 74 84 94 117 330 318 292 292 299 273 190 97 132 353 356 306 67 113 105 107 114 146 161 156 152 150 147 144 144 147 148 148 150 152 153 155 154 155 157 162 167 173 181 188 195 204 194
32 13 37 79 99 195 340 311 312 329 335 32 337 49 40 36 332 329 93 107 104 109 127 157 160 165 159 157 155 153 150 151 154 154 157 158 159 158 158 160 161 170 176 182 190 193 204 216 219
33 54 54 71 57 279 274 296 318 345 5 322 336 357 68 349 345 26 83 94 113 125 139 157 165 168 167 166 165 162 157 158 162 162 164 163 164 164 166 168 172 177 183 189 197 204 214 227 253
47 96 61 92 345 306 305 337 331 350 353 338 19 42 77 286 16 334 34 136 136 147 145 157 177 178 176 173 175 169 167 166 167 168 169 170 171 173 176 177 182 188 192 198 204 220 229 239 268
106 75 164 136 79 356 338 329 31 338 347 352 291 37 324 354 344 23 39 42 77 107 128 137 154 188 191 186 185 178 174 174 173 173 176 177 179 184 186 189 193 199 200 208 215 235 256 263 278
95 87 93 20 91 189 327 347 297 24 331 296 2 9 309 316 336 34 45 36 34 107 143 167 188 184 188 197 199 192 184 181 178 178 180 182 188 193 199 202 208 211 212 221 233 251 265 279 283
101 61 49 108 72 284 324 9 294 293 337 317 18 258 269 333 355 41 19 354 335 253 208 184 207 205 209 197 204 196 196 195 189 187 185 181 178 194 207 214 220 226 227 235 249 265 276 286 289
76 85 254 226 322 314 287 276 292 355 322 292 298 270 285 322 21 353 311 259 253 245 232 211 208 212 207 211 190 186 207 186 184 194 188 170 190 205 205 219 231 237 240 245 253 264 278 290 285
146 121 197 225 248 279 228 264 320 288 326 302 293 307 298 304 310 307 279 275 236 216 252 225 204 214 213 205 181 197 201 185 200 194 178 200 208 216 214 197 227 215 250 236 253 274 275 279 271
81 58 96 270 297 317 312 279 314 196 241 287 295 294 289 289 287 284 273 260 259 246 240 204 205 208 215 196 198 197 208 208 197 209 197 202 208 212 214 212 210 209 229 239 240 251 262 273 270
53 302 291 282 285 244 333 342 305 317 318 321 308 313 297 298 294 277 259 237 250 243 252 237 183 206 214 199 204 200 215 214 210 198 196 201 205 218 214 210 192 199 210 220 235 245 257 272 285
288 265 287 284 343 112 65 278 137 278 272 320 323 302 300 299 291 305 279 267 221 239 243 232 209 201 185 202 209 209 215 216 207 200 192 201 218 225 209 203 204 213 210 215 224 236 248 259 263
287 356 349 26 356 14 262 339 339 285 344 323 316 304 290 275 293 279 267 266 251 234 243 232 212 203 200 199 201 204 206 196 206 199 197 197 209 218 216 216 213 226 215 214 219 236 245 258 253
29 46 8 306 346 341 69 283 284 295 335 314 312 310 308 306 283 286 284 268 272 249 231 244 226 200 198 203 203 208 207 190 208 203 189 202 205 201 206 214 226 224 214 219 220 223 243 248 248
11 327 324 317 337 316 65 304 304 311 328 313 314 323 318 316 315 301 289 282 280 277 240 236 236 205 199 208 207 197 176 197 198 191 203 203 205 202 205 210 220 218 222 217 225 232 215 237 254
276 304 268 259 289 271 301 264 290 296 310 289 312 311 311 314 307 313 312 302 296 272 252 238 202 254 211 173 138 160 189 218 202 212 210 206 208 203 194 206 213 220 219 233 219 229 207 229 228
215 226 251 257 266 220 254 260 270 280 306 325 341 321 318 315 302 296 311 309 315 280 259 226 211 214 182 165 173 180 208 209 208 212 202 208 202 201 198 205 202 206 224 232 229 222 209 218 189
217 249 265 282 257 204 279 285 242 272 280 47 328 333 333 325 324 329 333 332 319 305 271 239 216 205 195 198 178 138 147 170 169 205 228 232 228 213 209 199 203 203 208 221 204 197 191 203 187
263 230 268 251 302 252 297 287 204 301 15 4 358 316 326 331 328 333 343 341 335 328 293 244 231 218 188 187 127 88 77 69 138 96 189 220 214 218 219 221 210 212 194 199 199 190 183 188 193
299 191 252 273 333 283 73 287 295 287 306 2 342 346 333 339 345 352 353 360 357 336 301 282 244 229 134 138 177 153 165 161 153 191 155 251 214 226 225 230 226 204 191 190 198 166 210 171 191
228 287 244 263 244 23 274 11 268 218 301 322 326 328 320 317 344 350 354 356 4 351 358 348 25 138 145 159 144 78 96 114 193 147 227 237 242 237 239 237 231 221 215 218 210 194 177 211 164
302 337 346 50 99 34 230 99 276 256 218 295 294 309 313 316 332 352 355 358 3 357 5 6 348 80 107 120 128 144 138 154 177 196 230 229 251 243 237 231 231 229 218 208 201 195 179 169 161
34 41 332 346 2 236 241 316 239 262 210 221 264 297 302 303 328 7 2 357 352 356 356 4 358 25 1 132 121 168 178 190 204 208 220 217 250 246 244 241 232 240 222 200 163 160 142 150 133
148 142 147 292 266 280 281 245 254 235 179 236 273 274 292 330 344 356 359 1 345 350 341 355 3 16 24 36 23 285 256 231 220 209 231 238 231 240 258 253 237 200 140 128 122 120 120 131 126
192 187 190 215 260 9 240 290 317 69 288 289 273 312 312 309 314 328 346 19 346 337 337 329 359 0 15 19 23 17 15 336 264 251 249 271 287 308 298 275 230 148 136 126 116 114 111 104 107
185 164 30 17 289 267 285 258 242 282 242 263 312 316 303 310 308 314 338 16 355 329 317 325 337 1 336 7 17 8 347 334 284 249 254 283 327 321 314 307 108 111 118 125 125 123 118 110 97
281 246 68 139 165 211 290 261 208 222 244 281 297 310 312 320 305 294 340 27 2 328 327 308 332 355 11 3 356 10 1 354 351 0 1 346 346 356 34 59 95 122 124 124 120 118 122 112 106
172 217 165 154 246 237 199 267 231 258 327 322 297 299 337 331 345 276 298 338 357 298 306 315 327 346 351 345 3 9 5 356 350 342 337 23 47 49 84 98 103 107 109 124 129 129 118 115 119